Regional Weather Roundup
Issued by NWS

Home | Current Version | Previous Version | Text Only | Print | Product List | Glossary On
Versions: 1 2 3 4 5 6 7 8 9 10 11 12 13 14 15 16 17 18 19 20 21 22 23 24 25 26 27 28 29 30 31 32 33 34 35 36 37 38 39 40 41 42 43 44 45 46 47 48 49 50
429
ASUS43 KDTX 231410
RWRMI
MICHIGAN HOURLY REGIONAL WEATHER ROUNDUP
NATIONAL WEATHER SERVICE DETROIT/PONTIAC MI
1000 AM EDT TUE AUG 23 2016

NOTE: "FAIR" INDICATES FEW OR NO CLOUDS BELOW 12,000 FEET WITH NO
SIGNIFICANT WEATHER AND/OR OBSTRUCTION TO VISIBILITY.

MIZ047>049-052>055-059>063-066>070-074>076-081>083-231500-
SOUTHEAST LOWER MICHIGAN

CITY           SKY/WX    TMP DP  RH WIND       PRES   REMARKS
ADRIAN         SUNNY     68  60  75 SW7       30.29S
ALMA           SUNNY     69  63  80 SW7       30.24S
ANN ARBOR      SUNNY     71  58  63 S6        30.27S
BAD AXE        SUNNY     70  58  66 SW8       30.23S
CARO           SUNNY     70  59  68 SW14G22   30.20F
DETROIT CITY   SUNNY     72  57  59 S7        30.28R
DETROIT        MOSUNNY   71  56  58 S7        30.28S
FLINT          SUNNY     74  59  59 S9        30.25S
GROSSE ILE     MOSUNNY   71  58  61 SW5       30.27S
HILLSDALE      SUNNY     69  59  70 SE6       30.28S
HOWELL         SUNNY     70  58  66 SW5       30.27R

CITY           SKY/WX    TMP DP  RH WIND       PRES   REMARKS
JACKSON        SUNNY     71  58  63 S6        30.27S
LAMBERTVILLE   SUNNY     72  58  60 SW5       30.28S
LANSING        SUNNY     71  57  61 S9        30.26S
LAPEER         FAIR      72  57  60 SW8G17    30.25S
MASON          SUNNY     70  59  68 SE5       30.26S
MONROE         SUNNY     70  61  71 CALM      30.28R
MT. CLEMENS    MOSUNNY   75  58  56 SW9       30.25R
PONTIAC        PTSUNNY   70  57  63 SW7       30.26S
PORT HURON     SUNNY     70  61  73 SW5       30.25F
TRI CITIES     SUNNY     70  60  70 SW14      30.21F
MIDLAND        FAIR      70  59  68 SW10      30.20S
TROY           SUNNY     72  55  55 SW8       30.29R
SAGINAW HB     SUNNY     70  59  68 SW18      30.21F
$$
MIZ043>046-050>051-056>058-064>065-071>073-077>080-231500-
SOUTHWEST LOWER MICHIGAN

CITY           SKY/WX    TMP DP  RH WIND       PRES   REMARKS
BATTLE CREEK   SUNNY     68  61  78 S8        30.27R
BENTON HARBOR  SUNNY     71  60  68 S8        30.24R
BIG RAPIDS     SUNNY     71  65  80 S6        30.21F
COLDWATER      SUNNY     69  62  76 S3        30.27F
FREMONT        FAIR      69  63  80 S7        30.21S
HOLLAND        SUNNY     69  61  75 S10       30.24R
GRAND RAPIDS   PTSUNNY   70  59  68 S12       30.24S
IONIA          FAIR      69  58  68 S9        30.24S
KALAMAZOO      SUNNY     69  60  73 S8        30.25F
LUDINGTON      SUNNY     73  65  75 S7        30.18S
MARSHALL       SUNNY     70  59  68 S6        30.26S
MOUNT PLEASANT SUNNY     72  60  67 SW10      30.21S
MUSKEGON       MOSUNNY   75  66  73 S13       30.21S
SOUTH HAVEN    SUNNY     72  62  71 S7        30.24S
$$
MIZ016>042-231500-
NORTHERN LOWER MICHIGAN

CITY           SKY/WX    TMP DP  RH WIND       PRES   REMARKS
ALPENA         SUNNY     72  59  63 W9        30.17S
BEAVER ISLAND  SUNNY     74  64  72 SW14G22   30.12R
BELLAIRE       SUNNY     72  62  69 SW7       30.16S
CADILLAC       SUNNY     69  60  73 SW12      30.20S
CHARLEVOIX     SUNNY     73  62  68 SW15G23   30.16S
FRANKFORT      SUNNY     73  64  71 S9G17     30.16S
GAYLORD        SUNNY     71  58  63 SW14      30.18R
GRAYLING       SUNNY     73  62  68 W12       30.19S
HARBOR SPRINGS SUNNY     73  62  70 SW9G17    30.14S
HOUGHTON LAKE  SUNNY     71  60  68 SW12      30.21R
MANISTEE       SUNNY     73  63  70 S8        30.17F
OSCODA         SUNNY     73  60  64 SW13      30.18S
PELLSTON       SUNNY     74  60  61 SW13G22   30.12F
ROGERS CITY    SUNNY     73  60  63 SW9       30.15S
TRAVERSE CITY  MOSUNNY   74  61  63 VRB7      30.14S
$$
MIZ007>008-015-231500-
EASTERN UPPER MICHIGAN

CITY           SKY/WX    TMP DP  RH WIND       PRES   REMARKS
KINROSS        MOSUNNY   73  63  70 W17G25    30.09S
MACKINAC ISLAN SUNNY     73  62  68 SW16G29   30.10S
NEWBERRY       MOSUNNY   72  62  71 SW16G22   30.08S
S. S. MARIE    CLOUDY    73  63  70 SW13G20   30.07S
MUNISING         N/A     71  61  70 SW16G28   30.03F
$$
MIZ004>006-011>014-085-231500-
CENTRAL UPPER MICHIGAN

CITY           SKY/WX    TMP DP  RH WIND       PRES   REMARKS
MANISTIQUE     SUNNY     70  64  81 SW12      30.08S
ESCANABA       SUNNY     71  63  75 SW10      30.08S
MENOMINEE      SUNNY    N/A N/A N/A SW9       30.12S
SAWYER-GWINN   SUNNY     66  61  82 SW12      30.07S
$$
MIZ001>003-009>011-084-231500-
WESTERN UPPER MICHIGAN

CITY           SKY/WX    TMP DP  RH WIND       PRES   REMARKS
IRON MOUNTAIN  SUNNY     67  59  75 S8        30.08F
HOUGHTON       CLOUDY    71  62  73 S7        29.98S
COPPER HARBOR    N/A     73  63  70 VRB6      29.95S
IRONWOOD       SUNNY     70  61  73 SW8G16    29.99S
$$

ABBREVIATIONS USED IN REMARKS
   TC - TEMPERATURE IN CELSIUS
  WCI - WIND CHILL INDEX
   HX - HEAT INDEX
  VSB - VISIBILITY





USA.gov is the U.S. government's official web portal to all federal, state and local government web resources and services.